Overview Statistics Trail Chart Weather Telemetry Raw packets
 

This is the latest recevied weather packets stored in our database for station/object KB9HUO. If no packets are shown the sender has not sent any weather packets the latest 10 day(s).

<< 54 55 56 57 58 59 60 >>
Time Temp. Humidity Pressure Rain* Wind** Luminosity Snow
1788302492 32.78° C 57% 1017.9 hPa 0 mm - 24 W/m² -
1788302186 32.78° C 59% 1018 hPa 0 mm - 25 W/m² -
1788301882 32.78° C 58% 1017.7 hPa 0 mm - 25 W/m² -
1788301578 33.33° C 60% 1018 hPa 0 mm - 26 W/m² -
1788301274 33.33° C 56% 1017.8 hPa 0 mm - 26 W/m² -
1788300969 33.33° C 56% 1017.7 hPa 0 mm - 27 W/m² -
1788300665 33.33° C 56% 1017.8 hPa 0 mm - 30 W/m² -
1788300364 33.33° C 55% 1017.6 hPa 0 mm - 30 W/m² -
1788300063 33.33° C 54% 1017.7 hPa 0 mm - 29 W/m² -
1788299761 33.33° C 55% 1017.6 hPa 0 mm - 38 W/m² -
1788299456 33.89° C 56% 1017.7 hPa 0 mm - 31 W/m² -
1788299155 33.89° C 56% 1017.6 hPa 0 mm - 35 W/m² -
1788298849 33.89° C 56% 1017.8 hPa 0 mm - 43 W/m² -
1788298549 33.89° C 55% 1017.7 hPa 0 mm - 42 W/m² -
1788298243 33.89° C 57% 1017.7 hPa 0 mm - 52 W/m² -
1788297938 33.89° C 56% 1017.7 hPa 0 mm - 35 W/m² -
1788297634 33.89° C 56% 1017.8 hPa 0 mm - 35 W/m² -
1788297329 33.89° C 56% 1017.8 hPa 0 mm - 37 W/m² -
1788297026 33.89° C 57% 1017.7 hPa 0 mm - 56 W/m² -
1788296721 33.89° C 56% 1017.7 hPa 0 mm - 38 W/m² -
1788296417 33.89° C 58% 1017.9 hPa 0 mm - 38 W/m² -
1788296112 33.89° C 57% 1017.7 hPa 0 mm - 39 W/m² -
1788295807 33.89° C 56% 1017.9 hPa 0 mm - 40 W/m² -
1788295503 33.89° C 56% 1017.8 hPa 0 mm - 51 W/m² -
1788295202 33.89° C 57% 1018.1 hPa 0 mm - 55 W/m² -

* Rain latest hour (hover to see other rain measurements)
** Current wind speed in m/s (hover to see current wind gust speed)